Location: Dürabuch
(48.2640°N, 11.2185°E)
Time: 03:55:00
(UTC+00:00)

SL-8 R/B - Pass Details

Date: 23 May 2024
Orbit: 652 x 662 km, 48.4° (Epoch: 13 June)

Event Time Altitude Azimuth Distance (km) Brightness Sun altitude
Rises 00:58:53 0° 285° (WNW) 2,978 6.9 -17.1°
Reaches altitude 10° 01:01:19 10° 279° (W) 2,066 6.1 -16.9°
Maximum altitude 01:05:47 42° 209° (SSW) 938 4.0 -16.5°
Drops below altitude 10° 01:10:16 10° 139° (SE) 2,064 6.0 -16.2°
Sets 01:12:42 0° 132° (SE) 2,975 6.9 -16.0°
